Regional Weather Roundup
Issued by NWS

Home | Current Version | Previous Version | Graphics & Text | Print | Product List | Glossary On
Versions: 1 2 3 4 5 6 7 8 9 10 11 12 13 14 15 16 17 18 19 20 21 22 23 24 25 26 27 28 29 30 31 32 33 34 35 36 37 38 39 40 41 42 43 44 45 46 47 48 49 50
703
ASUS43 KIND 262109
RWRIN

WEATHER ROUNDUP FOR INDIANA
NATIONAL WEATHER SERVICE INDIANAPOLIS IN
500 PM EDT SUN MAR 26 2017

NOTE: "FAIR" INDICATES FEW OR NO CLOUDS BELOW 12,000 FEET WITH NO
SIGNIFICANT WEATHER AND/OR OBSTRUCTIONS TO VISIBILITY.

* - STATION DOES NOT REPORT WEATHER SUCH AS PRECIPITATION OR FOG.

+ - STATION NOT QUALITY CONTROLLED BY THE NATIONAL WEATHER SERVICE.
    USE DATA WITH CAUTION...ESPECIALLY DEWPOINT AND RELATIVE
    HUMIDITY OBSERVATIONS.

INZ001>003-010>013-019-020-262200-
NORTHWEST INDIANA

CITY           SKY/WX    TMP DP  RH WIND       PRES   REMARKS
GARY /AIRPORT/ PTSUNNY   64  48  55 W12G23    29.82S
KNOX *+        CLOUDY    57  43  58 S8        29.82F
LA PORTE +     CLOUDY    59  55  85 SW9       29.83S
MICHIGAN CITY+ CLOUDY    59  59 100 S3        29.82S
MONTICELLO +   PTSUNNY   61  54  78 SW9       29.82F
RENSSELAER +   PTSUNNY   61  54  77 SW16      29.83S
VALPARAISO     LGT RAIN  60  56  86 SW6       29.82F

$$

LMZ046-743>745-262200-
SOUTHERN LAKE MICHIGAN

STATION/POSITION TIME  TEMP    WIND        PRES    WAVE
                       AIR SEA DIR/SP/G            HT
                 (UTC) (F)     (DEG/KT/KT) (MB)    (FT)
BURNS HARBOR     2040   60     180/  8/ 11 1010.2S
MICHIGAN CITY    2040   58     190/  6/  7   N/A

$$

INZ004-005-014>016-021>024-262200-
NORTH CENTRAL INDIANA

CITY           SKY/WX    TMP DP  RH WIND       PRES   REMARKS
ELKHART        MOSUNNY   59  52  77 SW8       29.83S
GOSHEN         LGT RAIN  58  52  80 S7        29.84S
LOGANSPORT +   CLOUDY    61  52  72 SW15      29.85S
PERU/GRISSOM   PTSUNNY   58  58 100 S10       29.83S
ROCHESTER +    PTSUNNY   64  55  72 SW10      29.84S
SOUTH BEND     LGT RAIN  56  56 100 CALM      29.85R FOG
WARSAW +       CLOUDY    59  54  82 S5        29.84S

$$

INZ006>009-017-018-025>027-262200-
NORTHEAST INDIANA

CITY           SKY/WX    TMP DP  RH WIND       PRES   REMARKS
ANGOLA *+      CLOUDY    54  45  71 S5        29.85S
AUBURN +       RAIN      57  54  88 NW5       29.86S
FORT WAYNE     CLOUDY    61  53  75 S15G22    29.85F
HUNTINGTON +   RAIN      59  55  87 SW15G22   29.85R
KENDALLVILLE + LGT RAIN  54  54 100 SE3       29.86S

$$

INZ028-029-035-036-043>045-051>053-262200-
WEST CENTRAL INDIANA

CITY           SKY/WX    TMP DP  RH WIND       PRES   REMARKS
CRAWFORDSVL +  CLOUDY    58  54  85 SW13      29.86S
GREENCASTLE +  CLOUDY    59  54  82 SW3       29.87F
LAFAYETTE      CLOUDY    62  51  67 SW10      29.83F
TERRE HAUTE    CLOUDY    61  48  62 SW17G24   29.87S

$$

INZ030>032-037>040-046>048-054>057-064-065-262200-
CENTRAL INDIANA

CITY           SKY/WX    TMP DP  RH WIND       PRES   REMARKS
CP ATTERBURY + CLOUDY    63  55  77 SW10      29.89S
COLUMBUS       CLOUDY    59  57  94 S9        29.89F
FISHERS *+     CLOUDY    57  55  94 S8        29.87F
FRANKFORT +    CLOUDY    62  58  87 SW12      29.87S
GREENWOOD *+   CLOUDY    60  56  87 SW3       29.88F
INDIANAPOLIS   CLOUDY    59  56  89 S8        29.86F
-EAGLE CREEK   LGT RAIN  59  55  87 S6        29.86S
KOKOMO +       LGT RAIN  57  54  89 SW13      29.86R
MARION +       CLOUDY    59  54  83 S16       29.87S HAZE
MT COMFORT *+  CLOUDY    59  54  82 SW7       29.88F
SHELBYVILLE    CLOUDY    60  54  80 S8        29.88S
ZIONSVILLE +   LGT RAIN  59  52  78 SW15      29.87S

$$

INZ033-034-041-042-049-050-058-059-262200-
EAST CENTRAL INDIANA

CITY           SKY/WX    TMP DP  RH WIND       PRES   REMARKS
MUNCIE         LGT RAIN  57  51  80 S9        29.88R
RICHMOND +     CLOUDY    59  55  88 S16G23    29.89S

$$

INZ060-061-067>069-081>083-085>088-262200-
SOUTHWEST INDIANA

CITY           SKY/WX    TMP DP  RH WIND       PRES   REMARKS
EVANSVILLE     PTSUNNY   65  50  58 SW21G28   29.91R
HUNTINGBURG *+ CLOUDY    64  55  72 SW13      29.90S
WASHINGTON +   CLOUDY    62  50  66 MISG      29.89S

$$

INZ062-063-066-070>080-084-089>092-262200-
SOUTH CENTRAL AND SOUTHEAST INDIANA

CITY           SKY/WX    TMP DP  RH WIND       PRES   REMARKS
BEDFORD +      CLOUDY    61  54  77 SW6       29.88F
BLOOMINGTON    LGT RAIN  59  54  83 W7        29.88S
MADISON *+     CLOUDY    61  54  77 SW9       29.93R
NORTH VERNON + HVY RAIN  63  61  94 W15       29.90S
SEYMOUR +      CLOUDY    64  55  72 SW12      29.90

$$





USA.gov is the U.S. government's official web portal to all federal, state and local government web resources and services.